DW2342 Weather Reports


time (UTC)temp
F
wind
direction
speed
knots
gust
knots
rain 1hr
in
rain 24hr
in
rain mn
in
humidity
%
barometer
mb
20260503050027 47 350 1.7 5.2 0.03 0.13 0.13 90 1009.8
20260503044523 47 22 2.6 5.2 0.03 0.13 0.13 90 1009.8
20260503043036 47 360 1.7 5.2 0.03 0.12 0.12 90 1009.9
20260503041523 47 346 1.7 5.2 0.03 0.11 0.11 90 1010.0
20260503040019 47 344 1.7 4.3 0.04 0.10 0.10 90 1010.1
20260503034517 47 18 1.7 4.3 0.04 0.09 0.09 90 1010.2
20260503033020 48 355 2.6 5.2 0.05 0.09 0.09 89 1010.4
20260503031513 48 360 2.6 4.3 0.05 0.08 0.08 89 1010.5
20260503030011 48 9 1.7 3.5 0.03 0.06 0.06 89 1010.4
20260503024521 48 360 1.7 3.5 0.03 0.06 0.06 89 1010.5
20260503023008 48 343 0.9 4.3 0.02 0.04 0.04 88 1010.5
20260503021522 48 360 1.7 4.3 0.02 0.03 0.03 88 1010.5
20260503020005 48 355 2.6 4.3 0.03 0.03 0.03 87 1010.6
20260503014503 49 5 1.7 3.5 0.02 0.02 0.02 86 1010.8
20260503013100 49 346 1.7 3.5 0.02 0.02 0.02 86 1010.8
20260503011604 49 360 0.9 3.5 0.01 0.01 0.01 85 1010.9
20260503010104 50 96 0.9 1.7 0.00 0.00 0.00 85 1010.9
20260503004607 49 30 0.0 3.5 0.00 0.00 0.00 85 1011.0
20260503003109 49 40 1.7 3.5 0.00 0.00 0.00 84 1011.0
20260503001612 50 42 0.9 2.6 0.00 0.00 0.00 84 1011.0
20260503000051 50 42 0.9 2.6 0.00 0.00 0.00 83 1011.1
20260502234549 50 42 0.9 1.7 0.00 0.00 0.00 83 1011.2
20260502233048 50 42 0.0 1.7 0.00 0.00 0.00 82 1011.3
20260502231547 50 42 0.0 1.7 0.00 0.00 0.00 82 1011.3
20260502230046 50 42 0.0 1.7 0.00 0.00 0.00 82 1011.5
20260502224543 50 42 0.9 3.5 0.00 0.00 0.00 81 1011.5
20260502223043 50 68 1.7 3.5 0.00 0.00 0.00 82 1011.6
20260502221541 50 72 0.9 2.6 0.00 0.00 0.00 81 1011.8
20260502220040 51 85 1.7 5.2 0.00 0.00 0.00 81 1011.9
20260502214538 50 74 0.9 3.5 0.00 0.00 0.00 84 1012.0
20260502213052 49 355 0.0 2.6 0.00 0.00 0.00 84 1012.1
20260502211539 49 360 0.0 2.6 0.00 0.00 0.00 83 1012.1
20260502210039 50 360 1.7 3.5 0.00 0.00 0.00 82 1012.2
20260502204537 50 355 2.6 3.5 0.00 0.00 0.00 81 1012.4
20260502203039 50 355 1.7 3.5 0.00 0.00 0.00 81 1012.4
20260502201535 50 17 1.7 3.5 0.00 0.00 0.00 82 1012.3
20260502200054 50 17 2.6 4.3 0.00 0.00 0.00 81 1012.3
20260502194538 51 24 2.6 4.3 0.00 0.01 0.00 81 1012.3
20260502193033 52 13 2.6 5.2 0.00 0.01 0.00 78 1012.3
20260502191532 54 240 0.0 0.9 0.00 0.01 0.00 77 1012.3
20260502190032 54 240 0.0 0.9 0.00 0.01 0.00 76 1012.2
20260502184531 55 240 0.0 0.9 0.00 0.02 0.00 75 1012.3
20260502183037 55 240 0.0 0.9 0.00 0.02 0.00 75 1012.3
20260502181530 55 240 0.9 3.5 0.00 0.02 0.00 74 1012.3
20260502163024 57 192 0.9 5.2 0.00 0.04 0.00 70 1012.6
20260502161522 57 206 1.7 6.1 0.00 0.04 0.00 73 1012.8
20260502151515 58 175 3.5 9.6 0.00 0.04 0.00 72 1013.4
20260502130105 55 207 6.1 11.3 0.00 0.06 0.00 79 1014.7
20260502123052 55 168 5.2 12.2 0.00 0.06 0.00 84 1014.7
20260502121558 54 166 3.5 7.8 0.00 0.06 0.00 89 1014.7
20260502114541 51 214 3.5 7.0 0.00 0.06 0.00 91 1015.0
20260502113051 51 190 3.5 8.7 0.00 0.06 0.00 92 1015.0
20260502111543 50 200 5.2 9.6 0.00 0.06 0.00 92 1015.1
20260502110037 50 209 4.3 8.7 0.00 0.06 0.00 92 1015.2
20260502104534 50 211 3.5 7.0 0.00 0.06 0.00 92 1015.2
20260502103057 49 202 5.2 7.8 0.00 0.06 0.00 92 1015.2
20260502101546 49 203 3.5 6.1 0.00 0.06 0.00 92 1015.3
20260502091528 49 209 4.3 8.7 0.00 0.06 0.00 92 1015.3
20260502071519 49 195 4.3 6.1 0.00 0.06 0.00 91 1015.0
20260502070016 49 204 5.2 8.7 0.00 0.06 0.00 91 1014.9
20260502064513 49 202 5.2 7.8 0.00 0.06 0.00 91 1014.8
20260502063015 49 212 3.5 7.8 0.00 0.06 0.00 92 1014.8
20260502061512 49 212 4.3 7.0 0.00 0.06 0.00 91 1014.8
20260502060011 49 198 5.2 9.6 0.00 0.06 0.00 91 1014.9
20260502054511 49 209 3.5 10.4 0.00 0.06 0.00 91 1014.9
20260502053007 49 215 4.3 9.6 0.00 0.06 0.00 91 1014.9
20260502051506 49 200 5.2 9.6 0.00 0.06 0.00 91 1015.0